| time (UTC) | temp F | wind direction | speed knots | gust knots | rain 1hr in | rain 24hr in | rain mn in | humidity % | barometer mb |
| 20260505124556 | 68 | 190 | 0.0 | 6.1 | 0.00 | 0.00 | 0.00 | 62 | 1012.0 |
| 20260505124514 | 68 | 190 | 0.9 | 7.0 | 0.00 | 0.00 | 0.00 | 62 | 1012.0 |
| 20260505123055 | 68 | 169 | 1.7 | 4.3 | 0.00 | 0.00 | 0.00 | 62 | 1012.0 |
| 20260505121555 | 67 | 251 | 1.7 | 4.3 | 0.00 | 0.00 | 0.00 | 63 | 1011.9 |
| 20260505120055 | 65 | 88 | 0.0 | 7.0 | 0.00 | 0.00 | 0.00 | 66 | 1011.9 |
| 20260505114555 | 64 | 189 | 0.0 | 7.0 | 0.00 | 0.00 | 0.00 | 67 | 1011.8 |
| 20260505114458 | 64 | 189 | 0.0 | 1.7 | 0.00 | 0.00 | 0.00 | 67 | 1011.8 |
| 20260505113055 | 63 | 240 | 0.0 | 4.3 | 0.00 | 0.00 | 0.00 | 67 | 1011.6 |
| 20260505111554 | 62 | 81 | 0.0 | 4.3 | 0.00 | 0.00 | 0.00 | 68 | 1011.6 |
| 20260505101554 | 61 | 167 | 0.9 | 6.1 | 0.00 | 0.00 | 0.00 | 67 | 1011.2 |
| 20260505100053 | 61 | 115 | 0.9 | 5.2 | 0.00 | 0.00 | 0.00 | 67 | 1011.1 |
| 20260505094553 | 61 | 185 | 1.7 | 5.2 | 0.00 | 0.00 | 0.00 | 67 | 1010.9 |
| 20260505094505 | 61 | 173 | 2.6 | 6.1 | 0.00 | 0.00 | 0.00 | 67 | 1010.9 |
| 20260505093053 | 61 | 155 | 0.9 | 4.3 | 0.00 | 0.00 | 0.00 | 67 | 1010.9 |
| 20260505091553 | 60 | 153 | 1.7 | 4.3 | 0.00 | 0.00 | 0.00 | 68 | 1010.8 |
| 20260505090053 | 60 | 125 | 2.6 | 5.2 | 0.00 | 0.00 | 0.00 | 69 | 1010.8 |
| 20260505084552 | 60 | 153 | 0.0 | 5.2 | 0.00 | 0.00 | 0.00 | 69 | 1010.7 |
| 20260505084514 | 60 | 153 | 0.0 | 1.7 | 0.00 | 0.00 | 0.00 | 69 | 1010.8 |
| 20260505083052 | 60 | 157 | 0.0 | 5.2 | 0.00 | 0.00 | 0.00 | 69 | 1010.7 |
| 20260505081552 | 60 | 136 | 3.5 | 5.2 | 0.00 | 0.00 | 0.00 | 69 | 1010.7 |
| 20260505080052 | 60 | 115 | 4.3 | 7.0 | 0.00 | 0.00 | 0.00 | 69 | 1010.7 |
| 20260505074552 | 61 | 143 | 0.0 | 7.0 | 0.00 | 0.00 | 0.00 | 68 | 1010.8 |
| 20260505074459 | 61 | 143 | 0.9 | 7.0 | 0.00 | 0.00 | 0.00 | 68 | 1010.8 |
| 20260505073052 | 61 | 129 | 1.7 | 7.0 | 0.00 | 0.00 | 0.00 | 68 | 1010.7 |
| 20260505071552 | 61 | 162 | 0.9 | 7.0 | 0.00 | 0.00 | 0.00 | 68 | 1010.7 |
| 20260505070052 | 61 | 176 | 1.7 | 5.2 | 0.00 | 0.00 | 0.00 | 67 | 1010.7 |
| 20260505064551 | 61 | 158 | 2.6 | 5.2 | 0.00 | 0.00 | 0.00 | 66 | 1010.6 |
| 20260505064449 | 61 | 138 | 1.7 | 7.0 | 0.00 | 0.00 | 0.00 | 66 | 1010.6 |
| 20260505063051 | 61 | 187 | 0.9 | 0.0 | 0.00 | 0.00 | 0.00 | 67 | 1010.6 |
| 20260505061552 | 59 | 96 | 0.0 | 0.0 | 0.00 | 0.00 | 0.00 | 69 | 1010.5 |
| 20260505060051 | 59 | 217 | 0.0 | 0.9 | 0.00 | 0.00 | 0.00 | 70 | 1010.6 |
| 20260505054551 | 60 | 217 | 0.0 | 0.9 | 0.00 | 0.00 | 0.00 | 69 | 1010.4 |
| 20260505054455 | 60 | 217 | 0.0 | 0.0 | 0.00 | 0.00 | 0.00 | 69 | 1010.5 |
| 20260505053051 | 60 | 217 | 0.0 | 1.7 | 0.00 | 0.00 | 0.00 | 69 | 1010.5 |
| 20260505051551 | 61 | 217 | 0.0 | 1.7 | 0.00 | 0.00 | 0.00 | 67 | 1010.6 |
| 20260505041551 | 63 | 138 | 4.3 | 3.5 | 0.00 | 0.00 | 0.00 | 61 | 1010.6 |
| 20260505040051 | 63 | 161 | 0.9 | 2.6 | 0.00 | 0.00 | 0.00 | 60 | 1010.4 |
| 20260505034551 | 64 | 201 | 0.0 | 2.6 | 0.00 | 0.00 | 0.00 | 59 | 1010.4 |
| 20260505034453 | 64 | 201 | 0.0 | 1.7 | 0.00 | 0.00 | 0.00 | 59 | 1010.4 |
| 20260505033051 | 65 | 177 | 0.0 | 5.2 | 0.00 | 0.00 | 0.00 | 58 | 1010.3 |
| 20260505031551 | 66 | 117 | 0.0 | 5.2 | 0.00 | 0.00 | 0.00 | 57 | 1010.3 |
| 20260505030051 | 66 | 131 | 0.0 | 7.8 | 0.00 | 0.00 | 0.00 | 55 | 1010.3 |
| 20260505024551 | 67 | 186 | 0.0 | 7.8 | 0.00 | 0.00 | 0.00 | 53 | 1010.3 |
| 20260505024451 | 67 | 186 | 0.0 | 5.2 | 0.00 | 0.00 | 0.00 | 53 | 1010.4 |
| 20260505023051 | 67 | 145 | 4.3 | 6.1 | 0.00 | 0.00 | 0.00 | 53 | 1010.2 |
| 20260505021551 | 67 | 178 | 1.7 | 6.1 | 0.00 | 0.00 | 0.00 | 54 | 1010.3 |
| 20260505020051 | 67 | 155 | 0.9 | 6.1 | 0.00 | 0.00 | 0.00 | 53 | 1010.1 |
| 20260505014550 | 67 | 133 | 3.5 | 6.1 | 0.00 | 0.00 | 0.00 | 53 | 1010.1 |
| 20260505014505 | 67 | 126 | 2.6 | 4.3 | 0.00 | 0.00 | 0.00 | 53 | 1010.1 |
| 20260505013050 | 68 | 134 | 3.5 | 7.0 | 0.00 | 0.00 | 0.00 | 51 | 1010.1 |
| 20260505011550 | 68 | 136 | 3.5 | 7.0 | 0.00 | 0.00 | 0.00 | 51 | 1009.9 |
| 20260505010050 | 69 | 136 | 1.7 | 5.2 | 0.00 | 0.00 | 0.00 | 49 | 1009.8 |
| 20260505004550 | 70 | 132 | 0.9 | 5.2 | 0.00 | 0.00 | 0.00 | 48 | 1009.6 |
| 20260505004458 | 70 | 135 | 4.3 | 7.0 | 0.00 | 0.00 | 0.00 | 48 | 1009.6 |
| 20260505003050 | 70 | 137 | 0.0 | 4.3 | 0.00 | 0.00 | 0.00 | 48 | 1009.6 |
| 20260505001550 | 70 | 147 | 0.0 | 4.3 | 0.00 | 0.00 | 0.00 | 48 | 1009.6 |
| 20260505000050 | 71 | 136 | 0.0 | 7.8 | 0.00 | 0.00 | 0.00 | 47 | 1009.6 |
| 20260504234550 | 72 | 161 | 0.9 | 7.8 | 0.00 | 0.00 | 0.00 | 45 | 1009.5 |
| 20260504234504 | 72 | 140 | 0.0 | 4.3 | 0.00 | 0.00 | 0.00 | 45 | 1009.5 |
| 20260504233050 | 73 | 139 | 3.5 | 9.6 | 0.00 | 0.00 | 0.00 | 44 | 1009.3 |
| 20260504231550 | 73 | 154 | 3.5 | 9.6 | 0.00 | 0.00 | 0.00 | 43 | 1009.4 |
| 20260504230020 | 74 | 148 | 0.0 | 11.3 | 0.00 | 0.00 | 0.00 | 43 | 1009.4 |
| 20260504224503 | 74 | 135 | 3.5 | 9.6 | 0.00 | 0.00 | 0.00 | 42 | 1009.3 |
| 20260504224450 | 74 | 205 | 0.9 | 11.3 | 0.00 | 0.00 | 0.00 | 41 | 1009.3 |
| 20260504222950 | 75 | 123 | 0.0 | 11.3 | 0.00 | 0.00 | 0.00 | 41 | 1009.3 |
| 20260504221450 | 75 | 155 | 1.7 | 11.3 | 0.00 | 0.00 | 0.00 | 40 | 1009.1 |
| 20260504215950 | 75 | 173 | 0.0 | 13.0 | 0.00 | 0.00 | 0.00 | 39 | 1009.0 |
| 20260504214503 | 75 | 121 | 1.7 | 12.2 | 0.00 | 0.00 | 0.00 | 39 | 1009.2 |
| 20260504214450 | 75 | 104 | 1.7 | 13.0 | 0.00 | 0.00 | 0.00 | 39 | 1009.1 |
| 20260504212950 | 75 | 167 | 6.1 | 12.2 | 0.00 | 0.00 | 0.00 | 39 | 1009.2 |
| 20260504211450 | 75 | 123 | 7.0 | 12.2 | 0.00 | 0.00 | 0.00 | 38 | 1009.3 |
| 20260504205949 | 75 | 138 | 4.3 | 12.2 | 0.00 | 0.00 | 0.00 | 38 | 1009.3 |
| 20260504204459 | 75 | 148 | 4.3 | 8.7 | 0.00 | 0.00 | 0.00 | 38 | 1009.5 |
| 20260504204449 | 76 | 142 | 6.1 | 12.2 | 0.00 | 0.00 | 0.00 | 38 | 1009.3 |
| 20260504202949 | 75 | 150 | 5.2 | 11.3 | 0.00 | 0.00 | 0.00 | 39 | 1009.6 |
| 20260504201449 | 76 | 306 | 1.7 | 11.3 | 0.00 | 0.00 | 0.00 | 39 | 1009.7 |
| 20260504195919 | 75 | 144 | 5.2 | 13.0 | 0.00 | 0.00 | 0.00 | 39 | 1009.8 |
| 20260504194446 | 75 | 76 | 3.5 | 7.8 | 0.00 | 0.00 | 0.00 | 39 | 1010.1 |
| 20260504194419 | 75 | 150 | 5.2 | 13.0 | 0.00 | 0.00 | 0.00 | 40 | 1010.1 |
| 20260504192920 | 75 | 136 | 6.1 | 11.3 | 0.00 | 0.00 | 0.00 | 39 | 1010.3 |
| 20260504191419 | 75 | 128 | 1.7 | 11.3 | 0.00 | 0.00 | 0.00 | 39 | 1010.6 |
| 20260504185919 | 75 | 142 | 0.9 | 9.6 | 0.00 | 0.00 | 0.00 | 40 | 1010.7 |
| 20260504184501 | 74 | 161 | 5.2 | 8.7 | 0.00 | 0.00 | 0.00 | 38 | 1010.9 |
| 20260504184419 | 74 | 124 | 7.0 | 9.6 | 0.00 | 0.00 | 0.00 | 38 | 1010.9 |
| 20260504181419 | 74 | 336 | 0.9 | 13.0 | 0.00 | 0.00 | 0.00 | 41 | 1011.3 |
| 20260504175919 | 73 | 175 | 1.7 | 13.0 | 0.00 | 0.00 | 0.00 | 39 | 1011.4 |
| 20260504174459 | 73 | 158 | 5.2 | 13.0 | 0.00 | 0.00 | 0.00 | 40 | 1011.6 |
| 20260504174419 | 73 | 124 | 7.8 | 13.0 | 0.00 | 0.00 | 0.00 | 40 | 1011.6 |
| 20260504172919 | 72 | 197 | 0.9 | 7.0 | 0.00 | 0.00 | 0.00 | 40 | 1012.0 |